Wind_Speed
11 11 11 11 11 12 14 16 18 20 22 22 22 23 22 20 18 17 13 8 6 5 6 7 8 8 8 5 5 11 11 10 8 9 10 7 8 4 3 3 4 6 5 4 4 2 1
11 10 10 10 10 12 14 16 18 21 23 23 22 23 22 19 18 18 10 6 6 6 7 9 8 5 3 4 6 12 10 9 7 8 10 11 6 6 4 4 6 2 3 5 4 3 3
10 10 9 9 10 11 14 17 19 22 23 24 23 23 21 18 20 18 7 7 6 6 6 7 9 11 10 4 8 13 12 9 8 7 6 9 7 6 3 2 3 5 4 4 7 6 3
9 8 8 8 10 12 16 19 22 23 23 24 23 21 20 17 22 13 9 7 8 9 12 10 5 8 5 6 9 14 11 7 8 7 5 5 6 5 5 3 1 4 5 6 8 6 3
7 8 8 10 13 15 18 20 23 23 22 23 22 19 18 16 22 10 8 10 9 9 7 5 5 4 3 7 9 13 14 6 6 5 7 5 4 2 1 4 5 4 8 11 4 6 3
6 6 9 12 14 16 19 22 23 22 21 21 21 18 16 14 18 8 12 12 11 8 6 5 7 3 7 5 10 13 13 6 4 4 2 2 1 3 6 8 5 10 11 11 10 2 7
5 8 11 14 17 18 20 24 25 22 21 20 19 17 15 12 14 6 8 5 2 4 17 8 5 4 5 2 9 13 12 5 4 2 4 3 3 7 8 6 6 8 11 13 8 5 6
5 11 14 15 18 21 22 23 24 22 22 20 17 17 14 10 14 14 3 2 3 10 7 8 8 7 7 6 3 15 13 4 4 5 4 4 7 5 3 4 7 10 13 9 4 1 8
8 11 14 16 19 21 22 22 22 21 20 18 17 16 14 10 7 10 7 8 9 7 1 3 7 6 6 5 4 12 12 5 5 6 6 4 4 3 4 6 10 12 7 11 11 16 14
9 13 16 17 21 23 22 22 20 19 17 16 16 16 15 11 5 11 11 2 4 3 3 6 4 5 6 3 1 12 11 4 1 5 5 3 2 3 5 4 8 10 6 9 13 11 4
12 14 16 19 23 25 23 20 18 16 14 15 15 15 14 10 6 11 10 1 5 2 1 5 3 6 6 5 8 8 10 3 5 5 5 4 4 4 5 5 5 6 14 12 9 8 8
14 16 18 21 24 24 22 18 15 13 13 14 15 14 11 8 7 12 8 4 4 3 2 2 3 7 4 6 5 10 6 6 2 2 1 3 1 2 4 7 5 13 13 11 4 4 3
16 17 19 23 25 24 21 17 13 11 12 13 14 13 9 10 9 11 4 3 2 2 2 4 4 6 5 6 4 8 6 9 6 6 7 6 1 0 3 10 5 11 13 3 3 2 4
17 17 19 23 26 23 19 15 13 12 12 12 13 10 7 11 12 8 2 3 1 1 3 2 3 4 3 7 3 6 4 4 8 6 7 5 2 3 5 3 6 7 6 4 5 6 10
18 20 21 23 25 22 17 13 12 13 12 12 12 6 9 13 9 6 1 3 3 2 2 5 3 3 1 2 3 6 4 3 5 8 6 5 2 2 1 2 3 3 3 2 5 7 4
20 20 23 24 25 21 15 12 12 12 12 12 12 4 8 13 7 4 1 3 1 1 2 2 3 1 3 5 5 5 2 2 1 2 4 4 7 2 1 2 1 3 4 3 3 5 7
21 20 22 23 23 19 14 11 12 11 11 11 8 3 8 9 6 3 3 3 2 1 2 3 2 3 2 4 4 4 3 3 1 1 3 4 2 2 4 3 4 3 3 4 3 4 4
22 26 19 20 22 16 12 11 11 9 9 9 4 3 9 5 1 3 2 2 1 2 1 1 2 2 3 3 4 3 3 1 2 1 4 3 5 6 13 2 1 4 6 7 3 3 7
23 18 19 20 20 16 11 10 8 7 8 8 3 2 4 1 1 3 3 2 1 2 2 1 2 2 1 2 4 3 3 1 4 3 2 1 3 6 2 3 2 3 4 8 9 8 14
22 21 21 22 18 15 12 9 8 6 6 5 2 2 2 4 3 1 3 2 2 2 2 3 2 3 3 5 6 4 5 2 3 6 3 3 5 8 10 13 13 19 19 11 11 9 14
24 24 22 21 18 15 13 10 8 6 5 3 2 1 1 1 2 2 1 1 3 3 3 4 4 9 5 4 5 6 6 6 7 3 4 4 6 11 18 18 19 22 24 19 20 22 17
26 26 23 20 17 16 14 11 9 7 5 3 2 2 1 1 2 4 3 6 6 3 4 4 6 3 7 7 8 14 14 14 11 6 5 4 4 3 8 16 15 19 22 17 19 20 22
24 23 21 20 18 17 16 14 11 9 7 4 6 6 2 3 3 3 3 4 6 4 7 7 6 6 9 12 12 15 19 21 21 13 6 4 3 2 6 4 6 15 16 11 8 10 10
20 21 20 19 19 18 17 16 14 12 11 10 8 6 3 3 8 6 4 6 7 11 9 4 7 8 2 6 13 18 23 23 21 20 18 6 5 2 5 6 5 5 5 5 9 13 15
21 20 20 20 20 19 19 18 17 15 15 15 13 11 4 4 9 7 10 8 8 10 11 14 14 11 8 6 5 6 6 4 5 3 7 15 8 4 4 9 16 12 2 1 2 8 12
22 22 21 21 21 21 21 20 19 18 17 17 17 17 7 4 9 7 8 11 7 8 8 7 9 9 4 4 2 3 4 5 4 4 1 4 11 4 4 6 8 5 3 2 1 8 9
24 23 23 23 23 22 22 22 22 21 19 19 18 19 14 5 7 10 8 6 7 5 5 3 4 3 4 3 4 4 6 3 5 6 5 4 4 12 11 7 10 4 8 4 3 3 15
25 25 24 25 24 24 24 23 24 23 21 22 24 20 22 9 14 18 19 14 9 11 6 5 2 5 4 4 3 4 4 2 3 7 4 8 6 5 5 5 9 6 5 5 5 16 12
29 27 26 27 27 27 27 25 25 25 24 22 25 23 25 22 13 16 25 25 23 18 13 10 8 4 5 2 3 2 3 2 5 8 2 5 10 6 7 5 4 3 7 7 10 12 9
Wind_Direction
83 80 75 66 51 38 28 22 16 13 11 9 9 7 5 5 5 1 359 10 26 57 91 113 119 119 109 78 30 354 5 14 19 23 27 5 23 2 23 68 67 89 122 102 128 147 204
84 79 70 58 43 29 19 13 10 8 9 7 5 6 7 10 6 358 1 28 58 83 105 115 111 111 70 80 11 10 12 20 22 36 30 42 38 39 60 32 351 59 144 135 170 185 212
83 75 63 46 30 18 11 6 1 359 1 3 3 5 7 9 4 2 41 69 76 95 114 124 107 98 69 79 24 12 7 10 18 29 32 46 52 14 345 103 50 131 168 207 212 212 255
81 70 51 30 15 8 2 359 357 354 354 358 0 2 6 9 6 32 67 75 87 107 111 110 84 75 73 34 20 10 6 1 3 17 25 40 55 50 24 100 143 269 262 285 124 195 179
72 49 28 10 1 355 357 357 353 351 351 354 356 1 8 13 14 41 61 96 92 105 110 91 52 87 63 12 8 3 1 3 354 6 23 23 45 74 155 286 229 179 329 329 327 202 258
60 31 9 354 347 346 348 354 355 353 352 353 355 358 7 14 22 65 98 95 88 95 96 55 34 124 34 346 14 3 356 6 8 337 325 340 256 268 19 5 14 327 328 323 315 114 244
33 10 357 349 347 350 348 348 351 352 352 354 355 356 2 13 23 57 129 114 43 87 74 67 45 58 5 39 25 2 9 18 340 7 353 11 28 25 9 8 337 318 312 310 319 38 286
9 355 348 348 350 350 348 347 348 349 351 355 359 358 0 11 24 28 171 235 152 137 84 58 54 46 33 25 349 5 14 358 12 17 334 211 55 26 344 316 311 300 308 334 338 346 292
340 339 345 343 345 346 344 345 346 349 352 357 0 3 3 6 25 35 60 119 129 136 233 53 37 27 12 10 25 355 13 347 1 13 10 21 51 350 325 326 334 329 323 334 311 315 280
336 338 340 341 341 342 342 344 346 348 352 357 1 2 4 6 19 16 30 158 169 159 215 24 21 0 353 333 223 2 11 1 13 358 349 24 34 342 335 340 340 318 350 317 307 319 332
339 341 343 342 341 339 339 342 345 350 352 355 358 359 359 10 19 16 354 82 166 143 317 23 9 344 355 26 333 14 13 351 11 358 312 46 347 342 325 339 323 299 327 308 308 290 306
336 340 338 337 338 338 337 338 343 351 352 353 354 356 2 16 13 5 5 117 128 218 276 34 338 357 335 24 17 347 8 23 355 296 237 11 345 297 332 309 270 300 300 280 269 282 257
324 329 332 335 337 337 335 335 339 346 347 350 351 354 4 13 350 351 16 126 223 4 154 23 352 353 343 358 15 8 12 40 27 343 1 314 180 102 330 311 195 332 337 323 300 288 313
309 319 325 332 334 333 333 333 334 338 340 342 349 349 6 359 352 352 79 227 31 50 25 43 323 308 357 0 68 350 335 44 46 358 298 335 308 356 12 355 319 333 340 2 315 330 313
303 310 314 324 329 327 328 330 330 333 337 339 345 345 357 355 356 5 244 48 34 37 16 332 267 283 114 50 312 329 37 29 35 12 3 335 292 131 26 327 323 15 332 2 282 269 272
297 301 305 317 323 319 320 323 323 330 335 339 342 333 344 348 0 23 314 80 101 40 324 272 340 331 321 359 318 343 354 73 81 14 341 12 294 98 46 263 173 299 347 264 200 303 311
286 287 296 307 317 315 312 316 320 327 332 338 347 319 334 355 19 9 48 65 117 158 318 311 334 298 310 327 316 324 356 131 204 29 316 322 265 296 257 202 332 239 232 230 284 248 286
284 288 289 301 309 308 305 310 314 321 330 337 353 278 339 15 308 36 69 42 162 182 224 279 295 301 298 323 295 300 298 306 154 299 314 50 305 285 286 30 194 252 264 267 269 232 237
283 285 287 297 301 297 289 296 303 313 325 337 308 280 340 61 284 104 131 149 245 209 239 246 254 256 275 277 286 246 272 197 203 234 316 95 208 298 180 150 162 236 232 262 285 289 256
269 274 280 290 288 284 279 279 285 296 310 321 316 250 19 58 83 127 170 180 198 206 242 245 267 228 238 247 224 272 260 226 210 231 207 193 238 234 266 294 314 290 274 245 248 267 259
266 270 274 278 276 267 266 268 272 282 292 303 303 223 231 175 115 123 213 173 205 223 225 219 220 234 229 269 250 245 268 266 250 235 215 234 257 247 261 277 283 280 279 272 255 251 258
263 266 268 265 260 256 254 253 258 263 265 251 271 220 142 150 154 196 185 201 216 198 225 207 242 260 238 256 268 301 297 291 281 183 220 194 270 300 276 274 274 282 271 267 262 264 260
260 260 260 257 249 246 247 244 240 236 229 234 237 209 199 171 204 221 220 203 201 179 223 240 249 271 262 273 285 277 280 280 268 262 208 205 236 278 276 334 324 281 277 237 225 230 247
257 257 253 249 245 243 244 244 237 228 222 223 227 199 226 222 216 221 205 205 223 225 268 254 227 245 287 282 295 279 268 262 259 254 252 221 204 208 279 295 230 313 275 296 282 269 275
255 252 251 247 243 242 244 241 236 228 224 224 222 205 211 252 217 227 218 221 247 245 250 255 251 264 266 298 285 290 272 228 223 240 235 229 199 245 253 252 284 289 90 40 275 289 295
256 252 248 246 243 241 242 239 236 232 229 229 225 220 201 244 224 216 203 218 238 251 241 234 266 248 220 257 232 248 265 321 251 180 153 207 225 209 208 253 272 20 145 132 149 279 44
253 250 249 247 245 243 242 239 239 240 237 238 233 225 218 230 242 189 209 212 195 210 261 230 204 185 189 222 230 244 261 236 247 251 181 171 198 224 235 256 274 13 138 173 275 298 318
250 251 248 249 246 245 242 243 244 243 241 237 242 230 221 235 244 228 228 214 207 214 227 156 208 202 184 217 240 231 247 223 284 262 252 208 200 205 219 235 272 109 127 253 353 318 331
247 249 248 248 246 242 242 241 243 243 240 234 241 240 231 230 252 241 232 235 235 244 242 212 223 148 192 188 223 250 259 239 258 281 146 249 215 261 215 253 1 218 328 355 323 302 308
Height
1581 1581 1581 1580 1579 1577 1575 1573 1571 1568 1564 1561 1557 1553 1549 1546 1543 1540 1537 1535 1534 1533 1533 1533 1534 1535 1536 1539 1541 1537 1534 1532 1530 1529 1528 1528 1527 1526 1524 1525 1524 1525 1530 1531 1533 1534 1534
1584 1583 1583 1582 1580 1578 1577 1574 1572 1569 1565 1561 1558 1554 1549 1546 1542 1539 1536 1536 1535 1535 1535 1536 1536 1537 1538 1540 1540 1538 1535 1534 1532 1531 1531 1530 1531 1530 1529 1530 1528 1530 1531 1532 1534 1534 1535
1586 1585 1585 1584 1582 1580 1578 1575 1572 1569 1565 1562 1558 1554 1550 1546 1542 1538 1536 1536 1536 1536 1537 1537 1538 1539 1540 1543 1540 1538 1536 1534 1534 1533 1533 1532 1531 1532 1532 1532 1534 1533 1532 1533 1532 1533 1532
1588 1587 1587 1585 1584 1581 1579 1576 1572 1569 1566 1562 1558 1555 1551 1547 1543 1538 1537 1538 1538 1538 1539 1539 1540 1540 1543 1542 1541 1539 1537 1536 1535 1534 1534 1533 1533 1534 1534 1536 1534 1530 1529 1524 1526 1531 1533
1589 1588 1588 1586 1584 1582 1579 1576 1572 1569 1565 1562 1558 1555 1552 1548 1544 1541 1539 1539 1540 1540 1541 1541 1542 1542 1545 1543 1543 1540 1538 1537 1536 1535 1534 1534 1534 1535 1535 1530 1526 1527 1525 1522 1521 1528 1530
1590 1590 1588 1586 1584 1582 1579 1575 1572 1568 1565 1561 1558 1555 1552 1549 1546 1544 1543 1542 1542 1543 1543 1543 1543 1546 1546 1547 1544 1541 1539 1538 1537 1536 1536 1536 1534 1528 1527 1528 1532 1532 1528 1523 1524 1526 1530
1591 1590 1589 1587 1584 1581 1578 1575 1572 1568 1564 1561 1558 1555 1552 1550 1548 1545 1545 1545 1548 1549 1546 1548 1550 1548 1548 1547 1545 1543 1539 1538 1538 1537 1534 1535 1532 1537 1538 1538 1538 1536 1531 1525 1517 1524 1530
1591 1590 1589 1586 1584 1581 1578 1575 1571 1568 1564 1561 1558 1555 1552 1550 1548 1546 1545 1545 1545 1549 1551 1550 1550 1549 1548 1547 1547 1544 1541 1541 1538 1536 1535 1534 1539 1542 1541 1540 1538 1532 1526 1520 1520 1526 1527
1591 1590 1588 1586 1584 1581 1578 1574 1570 1567 1564 1561 1558 1556 1553 1550 1549 1547 1545 1546 1546 1547 1548 1552 1551 1551 1551 1549 1548 1546 1544 1542 1541 1538 1538 1535 1541 1542 1541 1537 1536 1528 1529 1529 1531 1524 1514
1591 1590 1588 1585 1583 1580 1577 1573 1570 1566 1563 1561 1558 1556 1553 1551 1551 1547 1547 1546 1546 1547 1543 1553 1552 1552 1552 1549 1549 1548 1546 1546 1542 1542 1541 1539 1543 1542 1539 1537 1539 1532 1533 1534 1532 1529 1519
1591 1589 1587 1585 1583 1579 1576 1572 1569 1566 1563 1561 1558 1556 1553 1550 1550 1549 1549 1546 1547 1549 1561 1556 1554 1553 1551 1552 1553 1550 1548 1547 1546 1545 1544 1541 1541 1541 1537 1540 1541 1534 1532 1532 1532 1529 1524
1590 1589 1587 1585 1582 1578 1575 1571 1568 1566 1563 1561 1558 1556 1553 1552 1551 1550 1548 1547 1549 1550 1572 1555 1556 1555 1552 1553 1554 1552 1551 1549 1548 1546 1543 1544 1546 1545 1542 1541 1541 1538 1528 1519 1527 1527 1524
1589 1587 1585 1583 1580 1577 1574 1571 1568 1566 1564 1561 1558 1556 1554 1553 1552 1550 1548 1549 1548 1551 1558 1558 1559 1558 1557 1556 1554 1555 1554 1552 1552 1549 1543 1536 1540 1544 1546 1538 1538 1533 1527 1522 1522 1520 1513
1587 1586 1584 1582 1579 1576 1573 1571 1569 1567 1564 1561 1558 1556 1555 1553 1551 1549 1549 1550 1552 1559 1557 1562 1561 1558 1556 1558 1556 1553 1549 1549 1553 1552 1547 1547 1545 1542 1545 1545 1545 1539 1538 1537 1539 1523 1517
1586 1584 1583 1580 1578 1575 1572 1571 1569 1567 1565 1562 1558 1557 1556 1553 1551 1549 1551 1552 1557 1558 1563 1561 1558 1555 1553 1556 1558 1551 1553 1555 1558 1557 1556 1550 1540 1544 1546 1546 1546 1537 1535 1543 1540 1525 1535
1583 1582 1581 1579 1577 1574 1571 1570 1568 1567 1565 1562 1560 1558 1556 1554 1552 1551 1549 1559 1561 1564 1564 1563 1557 1559 1555 1554 1554 1551 1553 1558 1558 1560 1559 1554 1554 1542 1544 1548 1547 1544 1543 1539 1534 1532 1526
1580 1579 1578 1576 1574 1573 1571 1570 1568 1567 1565 1562 1560 1560 1558 1555 1553 1553 1554 1561 1563 1566 1567 1564 1560 1559 1558 1559 1558 1554 1554 1558 1559 1559 1560 1559 1558 1542 1541 1541 1541 1542 1537 1539 1537 1533 1527
1575 1575 1574 1574 1572 1571 1570 1569 1568 1566 1564 1562 1560 1560 1558 1555 1556 1557 1557 1562 1565 1565 1566 1566 1566 1564 1561 1561 1558 1557 1556 1555 1558 1559 1555 1559 1556 1552 1536 1536 1543 1543 1538 1535 1535 1528 1527
1572 1571 1571 1571 1569 1569 1568 1568 1567 1566 1565 1563 1562 1560 1558 1556 1552 1557 1564 1565 1565 1565 1566 1566 1564 1565 1565 1562 1561 1556 1556 1558 1558 1558 1556 1558 1554 1551 1528 1541 1543 1540 1537 1539 1535 1536 1532
1567 1567 1567 1567 1566 1566 1566 1566 1565 1565 1564 1564 1562 1559 1559 1557 1558 1558 1560 1561 1563 1565 1565 1565 1564 1565 1564 1560 1558 1555 1554 1554 1557 1558 1559 1560 1554 1548 1541 1531 1535 1534 1530 1531 1534 1533 1519
1561 1562 1562 1562 1562 1563 1563 1564 1564 1563 1563 1564 1563 1561 1561 1557 1560 1561 1562 1562 1561 1562 1564 1564 1562 1562 1560 1558 1557 1555 1553 1554 1553 1556 1557 1557 1553 1547 1541 1539 1536 1531 1524 1527 1526 1518 1521
1556 1557 1558 1558 1558 1560 1560 1561 1562 1561 1562 1563 1564 1563 1562 1562 1563 1562 1562 1559 1559 1560 1562 1560 1561 1559 1560 1559 1555 1554 1551 1550 1549 1552 1554 1557 1550 1549 1545 1534 1531 1527 1514 1516 1517 1512 1511
1550 1551 1552 1553 1553 1555 1557 1558 1558 1558 1559 1560 1559 1559 1560 1563 1563 1561 1555 1556 1557 1559 1557 1557 1558 1558 1557 1556 1555 1554 1551 1550 1548 1546 1550 1554 1554 1553 1538 1533 1536 1523 1500 1501 1502 1501 1500
1545 1546 1546 1547 1549 1551 1553 1555 1555 1554 1555 1557 1558 1559 1561 1555 1559 1557 1556 1557 1558 1558 1557 1556 1557 1555 1553 1552 1552 1549 1544 1541 1541 1541 1543 1546 1551 1552 1542 1534 1529 1495 1495 1499 1496 1495 1493
1539 1540 1541 1543 1544 1546 1548 1550 1552 1552 1551 1552 1554 1555 1557 1553 1554 1555 1554 1554 1555 1555 1556 1554 1553 1554 1552 1553 1548 1541 1531 1534 1533 1538 1540 1540 1544 1545 1538 1518 1497 1488 1495 1497 1499 1492 1488
1534 1535 1536 1538 1540 1541 1543 1545 1548 1548 1548 1548 1550 1551 1552 1551 1546 1547 1548 1550 1549 1547 1549 1550 1549 1549 1551 1549 1549 1547 1535 1525 1526 1534 1541 1541 1539 1542 1532 1527 1502 1483 1497 1500 1501 1487 1496
1529 1529 1531 1533 1535 1536 1538 1541 1543 1545 1544 1546 1546 1548 1549 1548 1543 1545 1546 1545 1546 1546 1544 1545 1546 1547 1549 1547 1548 1542 1535 1529 1527 1519 1533 1537 1539 1532 1527 1519 1497 1490 1496 1499 1496 1492 1495
1523 1524 1524 1527 1529 1531 1533 1535 1538 1540 1540 1542 1541 1543 1544 1542 1538 1538 1538 1540 1540 1540 1539 1542 1544 1542 1545 1546 1542 1536 1531 1525 1527 1515 1518 1522 1529 1524 1520 1515 1502 1496 1500 1498 1493 1491 1494
1515 1517 1519 1521 1523 1525 1527 1529 1532 1534 1534 1536 1537 1538 1538 1537 1533 1531 1531 1533 1533 1535 1537 1536 1535 1535 1537 1541 1541 1536 1533 1533 1524 1517 1516 1520 1509 1500 1504 1490 1491 1497 1498 1497 1497 1497 1493